CPA173 VHHH-YPAD

Flight info

Callsign CPA173
Flight time N/A
Altitude 36000
Route DALOL V652 SABNO/N0496F350 A583 TOKON/N0496F370 A583 ZAM A461 OCTOB/N0486F390 A461 AS J251 WHA H84 AD
Aircraft A359/H-SDE2E3GHIJ3J4J5LM1ORWXY/LB1D1

Departure

Time N/A
Airport Hong Kong International Airport (VHHH)

Arrival

Time 2026-05-06 02:20
Airport Adelaide International Airport (YPAD)
Time Latitude Longitude Altitude Speed Heading
2026-05-06 00:52 -25.49611 134.57118 36294 ft 492 kts 163°
2026-05-06 00:53 -25.52816 134.58444 36292 ft 491 kts 163°
2026-05-06 00:53 -25.59216 134.61093 36294 ft 491 kts 162°
2026-05-06 00:54 -25.65613 134.63745 36294 ft 491 kts 162°
2026-05-06 00:54 -25.72019 134.66403 36295 ft 491 kts 162°
2026-05-06 00:55 -25.78419 134.69063 36293 ft 491 kts 162°
2026-05-06 00:55 -25.84814 134.71725 36294 ft 490 kts 162°
2026-05-06 00:56 -25.91203 134.74386 36293 ft 491 kts 162°
2026-05-06 00:56 -25.97597 134.77048 36293 ft 491 kts 162°
2026-05-06 00:57 -26.03994 134.79715 36296 ft 491 kts 162°
2026-05-06 00:57 -26.10366 134.82381 36294 ft 488 kts 162°
2026-05-06 00:58 -26.16715 134.85039 36294 ft 487 kts 162°
2026-05-06 00:58 -26.23058 134.87696 36293 ft 487 kts 162°
2026-05-06 00:59 -26.29408 134.90359 36295 ft 487 kts 162°
2026-05-06 00:59 -26.35751 134.93022 36293 ft 487 kts 162°
2026-05-06 01:00 -26.42092 134.95690 36293 ft 487 kts 162°
2026-05-06 01:00 -26.48432 134.98358 36293 ft 487 kts 162°
2026-05-06 01:01 -26.54776 135.01031 36293 ft 487 kts 162°
2026-05-06 01:01 -26.61112 135.03705 36293 ft 487 kts 162°
2026-05-06 01:02 -26.67450 135.06382 36294 ft 487 kts 162°
2026-05-06 01:02 -26.73785 135.09061 36300 ft 487 kts 162°
2026-05-06 01:03 -26.80117 135.11742 36300 ft 486 kts 162°
2026-05-06 01:03 -26.86449 135.14422 36300 ft 486 kts 162°
2026-05-06 01:04 -26.92772 135.17108 36301 ft 485 kts 162°
2026-05-06 01:04 -26.99080 135.19812 36301 ft 485 kts 161°
2026-05-06 01:05 -27.05385 135.22523 36311 ft 485 kts 161°
2026-05-06 01:05 -27.11690 135.25234 36301 ft 485 kts 161°
2026-05-06 01:06 -27.17990 135.27947 36300 ft 485 kts 161°
2026-05-06 01:06 -27.24280 135.30660 36298 ft 484 kts 161°
2026-05-06 01:07 -27.30693 135.33428 36301 ft 484 kts 161°
2026-05-06 01:07 -27.36976 135.36141 36301 ft 483 kts 161°
2026-05-06 01:08 -27.43250 135.38861 36301 ft 483 kts 161°
2026-05-06 01:08 -27.49522 135.41575 36309 ft 483 kts 161°
2026-05-06 01:09 -27.55792 135.44293 36300 ft 483 kts 161°
2026-05-06 01:09 -27.62123 135.46774 36300 ft 481 kts 165°
2026-05-06 01:10 -27.68516 135.49020 36300 ft 481 kts 165°
2026-05-06 01:10 -27.74894 135.51291 36299 ft 481 kts 165°
2026-05-06 01:11 -27.80228 135.53233 36299 ft 481 kts 164°
2026-05-06 01:11 -27.86586 135.55572 36302 ft 481 kts 164°
2026-05-06 01:12 -27.92942 135.57915 36309 ft 480 kts 164°
2026-05-06 01:12 -27.99294 135.60263 36314 ft 480 kts 164°
2026-05-06 01:13 -28.05643 135.62610 36308 ft 480 kts 164°
2026-05-06 01:13 -28.11986 135.64957 36308 ft 480 kts 164°
2026-05-06 01:14 -28.21494 135.68484 36305 ft 478 kts 164°
2026-05-06 01:14 -28.27828 135.70832 36309 ft 480 kts 164°
2026-05-06 01:15 -28.34184 135.73189 36318 ft 480 kts 164°
2026-05-06 01:15 -28.40537 135.75555 36314 ft 481 kts 164°
2026-05-06 01:16 -28.46897 135.77932 36316 ft 480 kts 164°
2026-05-06 01:16 -28.53230 135.80291 36304 ft 479 kts 164°
2026-05-06 01:17 -28.59525 135.82638 36317 ft 479 kts 164°
2026-05-06 01:17 -28.65852 135.85003 36310 ft 479 kts 164°
2026-05-06 01:18 -28.72180 135.87371 36311 ft 479 kts 164°
2026-05-06 01:18 -28.78506 135.89743 36304 ft 479 kts 164°
2026-05-06 01:19 -28.84834 135.92119 36318 ft 478 kts 164°
2026-05-06 01:19 -28.91153 135.94493 36315 ft 478 kts 164°
2026-05-06 01:20 -28.97476 135.96872 36320 ft 478 kts 164°
2026-05-06 01:20 -29.03787 135.99252 36317 ft 478 kts 164°
2026-05-06 01:21 -29.10099 136.01631 36310 ft 478 kts 164°
2026-05-06 01:21 -29.16419 136.04019 36318 ft 479 kts 164°
2026-05-06 01:22 -29.22744 136.06412 36308 ft 479 kts 164°
2026-05-06 01:22 -29.29064 136.08805 36325 ft 478 kts 164°
2026-05-06 01:23 -29.35386 136.11202 36327 ft 479 kts 164°
2026-05-06 01:23 -29.41702 136.13600 36320 ft 478 kts 164°
2026-05-06 01:24 -29.48019 136.16002 36315 ft 478 kts 164°
2026-05-06 01:24 -29.54329 136.18405 36330 ft 478 kts 164°
2026-05-06 01:25 -29.60638 136.20813 36316 ft 478 kts 164°
2026-05-06 01:25 -29.66945 136.23218 36318 ft 478 kts 164°
2026-05-06 01:26 -29.73250 136.25636 36329 ft 478 kts 164°
2026-05-06 01:26 -29.79546 136.28067 36318 ft 477 kts 164°
2026-05-06 01:27 -29.85849 136.30501 36314 ft 477 kts 164°
2026-05-06 01:27 -29.92144 136.32931 36314 ft 477 kts 164°
2026-05-06 01:28 -29.98442 136.35368 36317 ft 477 kts 164°
2026-05-06 01:28 -30.04740 136.37812 36322 ft 477 kts 164°
2026-05-06 01:29 -30.11038 136.40256 36323 ft 477 kts 164°
2026-05-06 01:29 -30.17325 136.42696 36322 ft 477 kts 164°
2026-05-06 01:30 -30.23619 136.45144 36315 ft 477 kts 164°
2026-05-06 01:30 -30.29908 136.47594 36321 ft 477 kts 164°
2026-05-06 01:31 -30.36195 136.50047 36326 ft 477 kts 163°
2026-05-06 01:31 -30.42482 136.52505 36316 ft 477 kts 163°
2026-05-06 01:32 -30.48765 136.54962 36315 ft 477 kts 164°
2026-05-06 01:32 -30.55050 136.57421 36328 ft 476 kts 163°
2026-05-06 01:33 -30.61332 136.59886 36328 ft 477 kts 163°
2026-05-06 01:33 -30.67616 136.62355 36319 ft 477 kts 163°
2026-05-06 01:34 -30.73891 136.64825 36322 ft 477 kts 163°
2026-05-06 01:34 -30.80172 136.67297 36322 ft 476 kts 163°
2026-05-06 01:35 -30.86443 136.69772 36315 ft 476 kts 163°
2026-05-06 01:35 -30.92718 136.72251 36321 ft 476 kts 163°
2026-05-06 01:36 -30.98991 136.74731 36314 ft 476 kts 163°
2026-05-06 01:36 -31.05267 136.77215 36318 ft 476 kts 163°
2026-05-06 01:37 -31.11538 136.79702 36319 ft 476 kts 163°
2026-05-06 01:37 -31.17815 136.82171 36330 ft 475 kts 165°
2026-05-06 01:38 -31.24123 136.84469 36328 ft 475 kts 165°
2026-05-06 01:38 -31.30446 136.86739 36318 ft 475 kts 165°
2026-05-06 01:39 -31.36763 136.89037 36316 ft 475 kts 165°
2026-05-06 01:39 -31.43070 136.91360 36325 ft 475 kts 165°
2026-05-06 01:40 -31.49375 136.93686 36318 ft 475 kts 165°
2026-05-06 01:40 -31.55681 136.96013 36324 ft 475 kts 165°
2026-05-06 01:41 -31.61983 136.98341 36319 ft 475 kts 165°
2026-05-06 01:41 -31.68286 137.00672 36320 ft 475 kts 165°
2026-05-06 01:42 -31.74203 137.02866 36317 ft 475 kts 165°
2026-05-06 01:42 -31.80499 137.05201 36317 ft 474 kts 165°
2026-05-06 01:43 -31.86794 137.07539 36320 ft 474 kts 165°
2026-05-06 01:43 -31.93089 137.09882 36317 ft 474 kts 165°
2026-05-06 01:44 -31.99372 137.12226 36309 ft 474 kts 165°
2026-05-06 01:44 -32.05666 137.14575 36314 ft 474 kts 165°
2026-05-06 01:45 -32.11949 137.16921 36304 ft 474 kts 165°
2026-05-06 01:45 -32.18236 137.19275 36317 ft 474 kts 165°
2026-05-06 01:46 -32.24521 137.21632 36314 ft 474 kts 165°
2026-05-06 01:46 -32.30805 137.23989 36307 ft 474 kts 165°
2026-05-06 01:47 -32.37086 137.26349 36320 ft 474 kts 164°
2026-05-06 01:47 -32.43368 137.28718 36317 ft 474 kts 164°
2026-05-06 01:48 -32.49653 137.31089 36304 ft 474 kts 164°
2026-05-06 01:48 -32.55931 137.33461 36300 ft 474 kts 164°
2026-05-06 01:49 -32.62213 137.35835 36300 ft 474 kts 164°
2026-05-06 01:49 -32.68489 137.38210 36300 ft 474 kts 164°
2026-05-06 01:50 -32.74770 137.40591 36302 ft 474 kts 164°
2026-05-06 01:50 -32.81050 137.42975 36297 ft 474 kts 164°
2026-05-06 01:51 -32.87330 137.45366 36294 ft 474 kts 164°
2026-05-06 01:51 -32.93603 137.47753 36293 ft 473 kts 164°
2026-05-06 01:52 -32.99882 137.50152 36294 ft 473 kts 164°
2026-05-06 01:52 -33.06146 137.52550 36293 ft 473 kts 164°
2026-05-06 01:53 -33.12426 137.54922 36293 ft 473 kts 165°
2026-05-06 01:53 -33.18712 137.57256 36285 ft 473 kts 165°
2026-05-06 01:54 -33.25002 137.59598 36284 ft 474 kts 165°
2026-05-06 01:54 -33.31290 137.61955 36285 ft 473 kts 165°
2026-05-06 01:55 -33.37577 137.64320 36285 ft 473 kts 165°
2026-05-06 01:55 -33.43863 137.66685 36284 ft 474 kts 165°
2026-05-06 01:56 -33.50148 137.69052 36285 ft 474 kts 165°
2026-05-06 01:56 -33.56440 137.71427 36275 ft 474 kts 165°
2026-05-06 01:57 -33.62725 137.73806 36276 ft 474 kts 165°
2026-05-06 01:57 -33.69017 137.76190 36275 ft 474 kts 165°
2026-05-06 01:58 -33.75304 137.78572 36275 ft 474 kts 165°
2026-05-06 01:58 -33.81536 137.80940 36027 ft 469 kts 165°
2026-05-06 01:59 -33.84656 137.82127 35169 ft 473 kts 165°
2026-05-06 01:59 -33.87837 137.83337 33847 ft 474 kts 165°
2026-05-06 01:59 -33.90994 137.84537 32477 ft 478 kts 164°
2026-05-06 01:59 -33.94120 137.85729 31269 ft 476 kts 164°
2026-05-06 02:00 -33.97305 137.86945 30138 ft 472 kts 164°
2026-05-06 02:00 -34.00416 137.88135 29060 ft 466 kts 164°
2026-05-06 02:00 -34.03441 137.89299 28015 ft 459 kts 164°
2026-05-06 02:00 -34.06462 137.90453 26952 ft 453 kts 164°
2026-05-06 02:01 -34.09448 137.91593 25898 ft 447 kts 164°
2026-05-06 02:01 -34.12385 137.92716 24877 ft 439 kts 164°
2026-05-06 02:01 -34.15276 137.93824 23824 ft 433 kts 164°
2026-05-06 02:01 -34.18125 137.94916 22771 ft 427 kts 164°
2026-05-06 02:02 -34.20932 137.95993 21728 ft 420 kts 164°
2026-05-06 02:02 -34.23690 137.97051 20683 ft 412 kts 164°
2026-05-06 02:02 -34.26403 137.98093 19635 ft 406 kts 164°
2026-05-06 02:02 -34.29070 137.99119 18599 ft 399 kts 164°
2026-05-06 02:03 -34.31697 138.00129 17599 ft 393 kts 163°
2026-05-06 02:03 -34.34247 138.01112 17044 ft 375 kts 164°
2026-05-06 02:03 -34.36672 138.02048 16627 ft 356 kts 164°
2026-05-06 02:03 -34.38980 138.02940 16224 ft 340 kts 164°
2026-05-06 02:04 -34.41164 138.03921 15834 ft 334 kts 155°
2026-05-06 02:04 -34.43145 138.05416 15436 ft 337 kts 145°
2026-05-06 02:04 -34.45025 138.07104 15053 ft 336 kts 144°
2026-05-06 02:04 -34.46888 138.08806 14656 ft 335 kts 144°
2026-05-06 02:05 -34.48742 138.10499 14274 ft 332 kts 144°
2026-05-06 02:05 -34.50586 138.12177 13872 ft 330 kts 144°
2026-05-06 02:05 -34.52419 138.13842 13484 ft 328 kts 144°
2026-05-06 02:05 -34.54238 138.15495 13098 ft 326 kts 144°
2026-05-06 02:06 -34.56051 138.17142 12712 ft 325 kts 144°
2026-05-06 02:06 -34.57852 138.18779 12330 ft 322 kts 144°
2026-05-06 02:06 -34.59645 138.20409 11953 ft 323 kts 144°
2026-05-06 02:06 -34.61440 138.22041 11568 ft 321 kts 144°
2026-05-06 02:07 -34.63201 138.23642 11366 ft 310 kts 144°
2026-05-06 02:07 -34.64895 138.25186 11231 ft 299 kts 144°
2026-05-06 02:07 -34.65983 138.26178 11142 ft 293 kts 144°
2026-05-06 02:07 -34.67589 138.27642 10878 ft 288 kts 144°
2026-05-06 02:08 -34.69202 138.29113 10430 ft 291 kts 144°
2026-05-06 02:08 -34.70821 138.30588 10087 ft 290 kts 144°
2026-05-06 02:08 -34.72396 138.32026 9771 ft 289 kts 144°
2026-05-06 02:08 -34.74011 138.33497 9469 ft 291 kts 144°
2026-05-06 02:09 -34.75625 138.34972 9150 ft 290 kts 144°
2026-05-06 02:09 -34.77234 138.36442 8829 ft 288 kts 144°
2026-05-06 02:09 -34.78717 138.38073 8530 ft 289 kts 130°
2026-05-06 02:09 -34.79589 138.40258 8232 ft 289 kts 102°
2026-05-06 02:10 -34.79753 138.42690 7931 ft 288 kts 91°
2026-05-06 02:10 -34.79743 138.45130 7623 ft 288 kts 90°
2026-05-06 02:10 -34.79722 138.47560 7319 ft 286 kts 90°
2026-05-06 02:10 -34.79707 138.49978 7018 ft 285 kts 90°
2026-05-06 02:11 -34.79696 138.52380 6720 ft 284 kts 90°
2026-05-06 02:11 -34.79677 138.54777 6421 ft 282 kts 89°
2026-05-06 02:11 -34.79284 138.57097 6137 ft 281 kts 66°
2026-05-06 02:11 -34.78335 138.59163 5848 ft 279 kts 57°
2026-05-06 02:12 -34.77293 138.61096 5678 ft 268 kts 56°
2026-05-06 02:12 -34.76285 138.62944 5551 ft 257 kts 56°
2026-05-06 02:12 -34.75307 138.64749 5313 ft 255 kts 56°
2026-05-06 02:12 -34.74358 138.66563 5047 ft 253 kts 60°
2026-05-06 02:13 -34.73821 138.68584 4815 ft 252 kts 86°
2026-05-06 02:13 -34.74140 138.70639 4584 ft 246 kts 118°
2026-05-06 02:13 -34.75168 138.72209 4446 ft 232 kts 140°
2026-05-06 02:13 -34.76373 138.73447 4318 ft 222 kts 142°
2026-05-06 02:14 -34.77588 138.74532 4183 ft 211 kts 154°
2026-05-06 02:14 -34.78943 138.74696 4087 ft 191 kts 197°
2026-05-06 02:14 -34.80188 138.74056 4057 ft 198 kts 212°
2026-05-06 02:14 -34.81227 138.72986 3954 ft 193 kts 228°
2026-05-06 02:15 -34.82088 138.71763 3723 ft 188 kts 231°
2026-05-06 02:15 -34.82914 138.70550 3441 ft 185 kts 231°
2026-05-06 02:15 -34.83736 138.69362 3164 ft 182 kts 231°
2026-05-06 02:15 -34.84539 138.68198 2911 ft 177 kts 231°
2026-05-06 02:16 -34.85320 138.67061 2685 ft 173 kts 231°
2026-05-06 02:16 -34.86089 138.65942 2454 ft 171 kts 231°
2026-05-06 02:16 -34.86844 138.64841 2220 ft 167 kts 231°
2026-05-06 02:16 -34.87570 138.63786 1999 ft 157 kts 231°
2026-05-06 02:17 -34.88247 138.62799 1794 ft 146 kts 232°
2026-05-06 02:17 -34.88881 138.61875 1616 ft 139 kts 232°
2026-05-06 02:17 -34.89498 138.60976 1434 ft 138 kts 232°
2026-05-06 02:17 -34.90115 138.60076 1265 ft 139 kts 232°
2026-05-06 02:18 -34.90731 138.59173 1050 ft 139 kts 232°
2026-05-06 02:18 -34.91343 138.58272 848 ft 138 kts 231°
2026-05-06 02:18 -34.91967 138.57385 681 ft 136 kts 231°
2026-05-06 02:18 -34.92582 138.56492 543 ft 138 kts 231°
2026-05-06 02:19 -34.93205 138.55591 356 ft 138 kts 231°
2026-05-06 02:19 -34.93824 138.54690 144 ft 139 kts 233°
2026-05-06 02:19 -34.94438 138.53794 26 ft 129 kts 231°
2026-05-06 02:19 -34.94900 138.53115 27 ft 80 kts 230°
2026-05-06 02:20 -34.95241 138.52609 24 ft 11 kts 250°
2026-05-06 02:20 -34.95209 138.52528 25 ft 12 kts 313°
2026-05-06 02:20 -34.95140 138.52465 25 ft 12 kts 333°
2026-05-06 02:21 -34.95056 138.52451 28 ft 13 kts 11°
2026-05-06 02:21 -34.94972 138.52511 27 ft 16 kts 40°
2026-05-06 02:21 -34.94884 138.52594 31 ft 16 kts 37°
2026-05-06 02:21 -34.94791 138.52678 27 ft 17 kts 37°
2026-05-06 02:22 -34.94691 138.52772 27 ft 19 kts 37°
2026-05-06 02:22 -34.94586 138.52868 29 ft 19 kts 37°
2026-05-06 02:22 -34.94481 138.52966 27 ft 10 kts 38°
2026-05-06 02:22 -34.94441 138.53034 27 ft 10 kts 81°
2026-05-06 02:23 -34.94461 138.53121 28 ft 12 kts 118°
2026-05-06 02:23 -34.94507 138.53219 30 ft 15 kts 114°
2026-05-06 02:23 -34.94499 138.53356 25 ft 19 kts 61°
2026-05-06 02:23 -34.94410 138.53485 24 ft 21 kts 49°
2026-05-06 02:24 -34.94319 138.53612 27 ft 15 kts 49°
2026-05-06 02:24 -34.94254 138.53653 27 ft 10 kts 356°
2026-05-06 02:24 -34.94204 138.53640 24 ft 6 kts
2026-05-06 02:24 -34.94171 138.53663 25 ft 5 kts 41°
2026-05-06 02:25 -34.94146 138.53697 26 ft 5 kts 49°
2026-05-06 02:25 -34.94124 138.53715 27 ft 1 kts
2026-05-06 02:25 -34.94118 138.53713 27 ft 5 kts 352°
2026-05-06 02:25 -34.94079 138.53684 29 ft 7 kts 319°
2026-05-06 02:26 -34.94064 138.53668 30 ft 0 kts 319°